Location: Unspecified
(0.0000°N, 0.0000°E)
Time: 17:51:44
(UTC+00:00)

Courier 1B Rocket - Pass Details

Date: 04 October 2020
Orbit: 921 x 1202 km, 28.2° (Epoch: 27 October)

Event Time Altitude Azimuth Distance (km) Brightness Sun altitude
Rises 01:51:35 0° 259° (W) 3,997 - -59.0°
Reaches altitude 10° 01:54:45 10° 268° (W) 2,996 - -58.2°
Maximum altitude 02:01:15 34° 330° (NNW) 1,688 - -56.6°
Drops below altitude 10° 02:07:23 10° 34° (NNE) 2,802 - -55.1°
Sets 02:10:15 0° 43° (NE) 3,708 - -54.4°
